Theta_e
314 314 316 313 312 313 312 312 308 310 311 318 327 331 335 337 336 335 334 334 336 335 336 339 339 340 340 340 341 342 342 342 344 347 348 347 351 351 350 350 349 349 352 352
311 315 314 311 313 313 312 311 311 311 311 317 320 329 335 337 336 333 333 334 335 336 336 335 336 336 336 338 340 341 341 341 343 346 348 348 349 350 354 352 352 353 350 351
308 314 312 307 311 311 311 312 312 309 320 327 322 325 331 336 336 333 333 334 334 333 333 333 333 334 333 334 336 338 340 340 341 344 345 348 348 350 350 351 352 351 350 350
308 311 302 312 317 314 310 312 316 317 321 325 327 331 334 335 333 334 334 333 332 330 332 332 333 333 334 334 337 338 339 339 342 345 345 348 347 348 350 350 349 348 348 350
306 306 310 311 314 312 310 313 318 318 323 325 329 331 331 335 336 335 333 333 332 332 331 333 333 335 335 334 335 335 336 340 342 345 344 346 345 347 349 348 346 346 347 348
308 304 302 311 316 319 316 307 320 319 321 322 324 316 324 333 331 330 330 330 330 331 331 331 333 333 332 332 332 333 337 340 341 343 343 342 344 345 346 346 345 341 343 346
307 305 308 317 317 318 305 312 320 321 323 323 322 325 326 328 328 329 329 329 331 330 329 331 332 331 331 331 330 333 335 336 339 340 340 341 342 342 343 343 342 342 341 342
309 305 303 319 317 310 320 323 322 323 325 324 326 326 325 325 325 326 326 327 328 328 328 329 330 329 329 332 333 336 337 335 337 339 336 334 339 340 341 340 338 338 338 337
313 313 320 322 322 323 323 324 323 323 323 323 322 321 323 323 324 324 325 326 327 326 327 328 330 332 329 331 331 332 331 330 331 335 334 335 333 332 330 335 332 331 329 330
312 318 319 320 322 323 325 324 323 323 322 322 321 322 322 322 323 323 324 325 327 327 326 326 328 328 328 331 331 330 328 328 327 328 327 329 331 329 329 327 328 327 326 325
315 320 320 321 322 323 322 322 322 323 322 322 322 321 321 321 322 323 324 324 322 320 318 319 321 322 326 328 327 322 323 322 322 323 324 325 330 332 327 330 325 326 324 327
312 322 321 322 323 323 322 322 322 320 320 322 321 320 321 319 320 319 318 318 316 316 316 316 314 314 318 323 322 320 318 319 319 321 322 322 322 322 317 312 310 308 307 313
319 323 322 325 324 324 323 321 320 319 320 318 318 317 316 316 317 314 316 314 315 313 315 315 315 314 316 313 313 311 310 311 312 312 315 318 319 321 320 321 310 305 304 305
323 323 321 323 321 322 320 319 318 319 317 316 315 316 315 314 314 313 312 311 313 312 312 312 310 309 311 311 311 311 311 308 310 312 314 315 316 319 319 318 317 319 315 307
322 322 323 324 322 320 320 318 317 316 314 313 314 314 314 313 313 312 313 313 312 311 311 310 310 311 312 312 312 310 308 309 310 310 311 311 313 314 316 318 318 316 319 316
322 323 323 321 319 318 317 316 314 312 311 313 313 314 314 314 313 312 312 311 309 308 309 311 310 311 312 312 311 309 309 309 310 309 309 310 310 310 311 312 313 313 315 318
320 319 320 318 318 316 315 314 311 311 313 313 314 314 314 312 312 311 310 310 310 310 310 310 309 311 312 311 309 308 309 309 309 309 308 308 308 307 309 309 310 311 313 317
325 324 321 320 318 316 312 311 312 313 313 313 314 313 312 310 308 308 310 309 309 309 311 312 312 311 309 309 309 310 309 307 307 305 304 304 304 305 306 306 308 310 312 316
323 320 320 318 316 313 311 311 312 313 315 315 314 312 312 312 311 311 311 310 309 309 310 311 311 310 308 309 309 308 306 305 303 302 302 300 301 303 303 304 306 308 310 317
320 320 319 316 314 312 311 312 312 314 314 314 314 313 311 311 311 312 312 310 311 310 311 310 311 309 308 307 307 305 303 301 300 299 300 298 298 300 300 300 303 306 311 314
319 318 316 314 312 313 313 314 313 311 311 313 312 311 310 312 312 312 310 307 311 311 309 310 310 308 307 306 305 302 300 299 298 298 297 296 296 297 298 300 302 305 307 312
320 317 315 313 313 313 315 316 314 313 310 310 310 311 310 310 310 311 312 309 310 307 308 311 310 306 306 305 302 300 298 297 295 295 294 294 294 295 296 298 299 300 304 306
320 318 315 314 313 314 315 317 316 314 310 310 310 310 309 309 309 307 306 312 311 308 309 311 305 304 303 302 300 299 297 295 293 292 292 292 293 294 295 296 297 299 302 301
320 317 315 316 315 315 314 317 317 316 314 312 311 312 311 308 309 310 312 309 307 306 308 309 306 304 303 302 299 299 297 295 293 292 291 292 293 293 294 295 296 298 298 298
319 316 316 315 315 313 316 317 315 316 313 312 311 312 312 312 310 311 312 312 308 307 309 307 305 306 307 304 300 299 298 296 294 292 291 290 291 292 293 293 294 295 294 296
318 314 315 316 316 317 318 315 315 314 310 311 312 312 312 313 313 312 312 310 312 308 310 310 309 307 306 306 302 299 298 297 295 293 292 292 292 292 292 293 293 293 293 293
318 310 315 315 316 316 317 313 313 312 312 311 311 313 314 313 313 312 309 312 312 311 309 310 309 306 305 305 305 301 299 298 296 294 293 292 292 292 292 293 292 291 292 292
Wind_Speed
24 32 28 11 9 10 10 11 14 18 19 4 13 11 14 13 12 11 11 11 10 10 9 8 7 6 4 4 3 5 4 6 7 7 7 9 9 9 10 10 10 10 10 10
14 8 10 12 12 14 16 12 14 15 15 15 5 5 13 15 12 10 10 9 8 8 8 7 6 3 3 1 2 3 5 7 7 7 8 9 10 10 10 11 11 10 11 10
12 13 7 12 13 10 5 9 10 10 9 10 3 1 7 11 13 10 8 7 7 7 6 3 1 1 5 1 4 5 7 8 8 8 9 9 10 11 11 11 11 11 12 11
12 13 17 2 6 4 6 8 4 5 3 3 4 1 1 5 9 5 7 6 4 4 4 4 5 6 7 7 7 8 9 9 9 10 10 10 10 11 12 11 11 11 11 12
11 12 14 11 15 5 5 6 5 3 4 5 4 2 5 6 6 7 5 4 5 5 5 5 6 8 9 10 10 11 11 10 10 11 11 12 13 12 12 12 11 11 12 12
13 16 15 4 9 8 4 11 11 3 5 6 5 6 9 7 3 2 4 5 6 7 9 10 10 11 11 12 12 13 12 12 11 12 13 14 14 14 13 12 13 13 14 13
11 11 13 10 9 6 8 6 5 3 5 4 2 9 7 6 5 7 8 8 8 9 11 12 12 13 13 13 15 14 14 14 13 13 14 15 15 14 15 14 15 14 14 13
8 10 10 8 5 6 8 3 3 5 7 2 6 4 3 5 6 8 10 11 12 12 12 12 13 14 15 14 13 13 13 14 14 14 14 14 15 14 14 14 14 14 14 14
8 7 4 4 6 6 5 7 4 4 7 4 3 4 7 8 10 11 13 12 13 14 15 14 14 14 15 12 10 10 13 14 16 16 15 14 14 14 14 14 13 13 11 11
4 8 5 6 6 6 7 9 6 6 5 5 7 8 11 11 12 13 13 13 13 15 16 16 16 16 16 13 13 14 15 14 14 14 14 14 13 12 12 10 12 12 11 13
6 7 5 5 7 8 8 6 6 5 6 7 8 10 11 11 11 11 12 13 12 13 14 15 15 15 18 15 11 10 12 12 11 10 12 14 12 11 11 11 11 11 9 11
4 12 5 12 8 5 6 5 5 5 6 7 7 8 10 10 10 10 11 12 12 12 13 13 14 13 15 16 13 10 9 9 8 9 9 10 12 14 15 14 15 17 15 14
2 5 7 12 7 6 6 3 4 4 6 7 7 8 8 9 9 10 10 11 12 12 13 14 14 13 10 8 10 11 10 10 8 9 10 12 13 14 14 14 13 15 18 19
9 9 11 12 10 6 3 3 3 4 5 6 8 8 10 9 10 10 11 11 12 11 12 12 11 10 11 11 12 13 13 14 10 10 11 11 12 12 11 11 12 13 14 15
11 6 10 10 6 5 3 4 2 4 6 7 6 7 8 10 10 10 10 10 12 12 11 10 11 12 12 14 14 14 11 10 11 10 10 12 13 15 15 13 11 11 13 15
9 9 9 7 6 3 1 2 4 5 5 5 7 9 8 9 9 10 10 10 11 11 12 11 12 14 14 13 14 13 13 18 15 11 11 11 11 11 11 12 12 12 12 15
10 9 7 5 4 3 3 5 4 4 3 6 7 7 8 8 9 10 10 10 11 10 11 9 12 12 14 14 12 10 10 11 18 11 10 11 10 11 11 11 11 11 13 14
6 8 5 5 5 5 4 2 2 2 4 4 6 6 7 8 8 10 10 10 10 9 10 10 8 13 14 14 15 14 11 12 11 11 12 12 11 11 11 11 12 11 13 14
9 9 8 8 6 6 4 3 3 2 3 4 5 5 7 7 7 8 10 9 10 11 12 15 14 14 12 16 18 12 12 13 12 11 10 15 12 11 10 11 11 12 13 12
11 10 9 9 7 5 5 3 2 2 3 4 4 6 7 7 7 9 10 11 9 10 14 16 14 11 14 18 24 13 13 13 12 12 10 10 12 10 10 13 11 12 11 10
10 10 10 8 7 5 5 3 3 4 4 4 6 6 7 7 6 8 9 9 12 11 15 19 8 12 14 18 16 12 12 12 12 12 10 10 11 10 11 11 10 11 10 10
9 9 8 7 7 5 2 1 3 3 4 4 5 6 7 8 7 8 8 9 10 14 12 10 10 15 16 23 12 11 13 12 11 10 10 10 10 10 10 10 10 10 10 10
8 8 8 7 6 4 5 2 2 2 4 4 5 6 7 8 7 8 9 10 9 11 11 8 9 12 17 12 11 12 12 13 12 10 10 9 9 9 9 10 10 10 9 9
8 8 8 6 6 5 4 0 3 2 2 4 3 5 7 7 7 8 8 8 7 8 11 4 4 3 6 9 11 11 12 11 11 10 10 13 9 8 9 9 9 9 9 10
9 9 9 7 6 7 6 3 7 8 4 6 4 4 4 4 6 8 8 10 8 8 11 4 8 7 10 9 10 11 11 11 11 10 10 9 9 9 9 8 9 9 9 9
9 8 7 8 7 2 1 4 2 3 4 3 3 3 4 5 5 8 9 8 11 10 11 10 10 10 11 10 7 10 11 12 12 12 12 10 9 9 9 9 9 9 9 9
8 6 7 7 7 6 1 6 4 3 2 3 3 4 4 6 5 6 7 10 10 10 10 10 10 10 10 9 7 6 10 10 13 11 11 10 10 9 9 9 8 8 8 8
Wind_Direction
156 180 223 289 305 298 284 299 293 304 307 73 153 168 157 148 148 152 159 152 139 136 129 126 121 117 110 94 53 2 334 310 300 305 309 302 292 288 282 282 285 289 284 285
294 264 221 283 290 291 281 267 278 281 286 293 19 142 168 160 160 180 175 143 161 145 150 147 149 153 95 337 300 295 277 276 289 277 272 277 280 285 287 281 278 279 273 278
269 289 285 273 274 306 329 314 300 279 25 4 345 275 198 171 164 192 164 193 171 166 174 151 194 226 246 246 300 290 291 295 294 290 288 288 288 286 275 275 278 281 283 279
283 289 273 327 65 348 308 299 300 301 21 17 40 103 121 215 129 171 197 177 200 228 194 221 258 326 335 298 298 286 287 290 291 290 291 289 286 285 280 270 267 269 275 275
280 271 277 254 184 226 245 221 163 225 148 109 100 154 152 114 144 170 193 186 218 249 273 293 290 291 286 283 288 287 286 289 290 294 296 296 291 283 279 272 268 269 270 269
274 279 273 342 72 92 65 259 135 177 135 138 157 236 67 121 156 181 180 248 283 319 320 305 308 305 299 295 297 299 299 297 305 308 298 294 290 287 280 274 270 266 268 264
251 248 259 99 123 133 231 67 124 152 145 166 232 67 83 41 12 342 334 324 315 299 292 299 307 304 302 298 296 304 308 305 301 296 294 290 283 276 272 270 268 270 271 271
240 262 252 99 154 254 75 135 88 58 63 33 28 51 5 348 325 317 310 310 307 301 300 309 310 304 298 293 301 310 303 298 299 295 290 292 296 288 283 280 274 269 267 266
343 34 76 25 40 81 82 100 92 102 84 40 331 340 347 328 320 319 316 317 319 310 306 307 316 337 330 328 323 308 298 292 286 286 291 288 284 288 286 274 267 266 264 273
284 122 130 116 111 96 96 94 86 57 46 15 349 337 329 329 324 322 319 321 332 338 323 325 317 311 305 302 316 315 300 297 296 295 286 292 289 280 270 276 269 283 285 279
239 128 133 152 128 107 99 75 58 54 25 7 347 332 333 323 322 328 338 336 336 317 311 309 318 324 323 321 323 313 307 301 291 289 288 296 288 284 282 281 282 290 285 292
339 137 238 141 123 133 113 89 55 3 358 2 344 339 344 331 335 329 337 327 329 327 320 314 318 315 316 323 332 327 314 309 312 302 294 289 289 291 268 246 260 263 257 256
195 157 126 114 118 97 115 79 21 4 26 357 4 352 342 336 344 330 324 321 325 327 318 316 323 319 322 357 327 319 304 298 297 286 282 282 290 293 295 290 257 243 246 246
119 122 127 150 134 109 81 46 153 36 28 7 8 360 359 347 339 341 332 323 317 327 322 323 319 330 318 314 311 304 297 282 275 275 282 287 279 281 285 278 293 289 285 249
163 184 143 112 128 106 84 23 355 30 7 2 0 4 357 340 344 338 337 331 328 323 329 327 313 323 329 319 315 310 302 296 295 293 288 290 295 292 290 291 282 284 283 279
144 132 139 139 124 101 50 65 347 38 12 3 1 3 349 341 334 337 342 339 331 333 328 330 334 324 329 321 314 314 313 305 294 289 287 285 283 280 279 278 283 282 281 283
155 153 150 148 124 100 62 50 34 21 15 14 16 3 346 350 331 351 340 339 331 327 329 325 324 326 322 326 321 305 305 303 303 293 291 286 283 286 284 279 278 277 277 277
116 91 75 94 134 142 110 58 34 20 19 6 29 351 350 342 335 331 332 339 322 310 289 335 330 336 328 324 320 315 312 302 297 309 310 299 292 293 289 285 280 282 283 272
128 116 108 111 109 105 96 60 36 16 358 7 7 343 299 323 349 321 321 326 308 319 358 329 352 338 320 321 333 319 307 305 313 299 298 301 295 289 293 287 288 291 287 277
125 121 123 126 125 123 112 68 11 11 14 341 329 322 335 345 339 333 324 321 6 347 338 332 316 327 342 335 326 314 325 313 304 302 294 301 295 292 295 287 284 288 291 300
139 142 138 142 135 139 128 89 20 9 344 349 338 339 333 322 333 314 331 335 356 8 349 304 15 3 341 338 330 333 319 314 309 304 301 301 299 296 292 291 295 294 297 301
150 151 160 148 162 145 115 73 56 8 340 341 335 335 326 315 323 326 343 354 338 29 329 319 19 10 351 342 337 326 325 323 319 313 309 306 302 298 298 297 299 299 302 308
156 160 160 171 183 145 176 197 216 38 347 334 322 333 327 320 335 332 347 358 347 1 316 344 52 10 2 350 336 332 333 332 326 319 314 309 304 304 303 304 302 301 306 311
155 161 163 178 150 198 216 190 332 157 325 276 271 334 306 318 334 5 344 336 12 322 318 26 45 323 360 14 342 336 341 335 330 327 320 317 311 310 307 308 309 309 311 306
162 170 170 179 200 205 204 160 239 194 199 213 236 261 297 7 331 343 347 343 343 319 333 121 195 293 351 16 355 338 341 339 339 331 327 318 321 320 317 315 315 318 309 301
173 187 174 200 253 353 186 198 8 67 344 357 358 349 348 336 14 332 354 352 348 352 350 357 350 348 353 5 358 346 340 338 342 341 338 332 327 328 324 325 324 319 310 310
180 206 187 195 199 219 321 55 326 56 167 7 342 2 328 339 353 318 347 355 357 357 354 358 344 353 358 360 360 342 343 339 340 340 341 337 335 337 334 331 325 320 322 320